Find Yuxing-2 09

NORAD ID: 66998 Int'l Des: NNA 2025-292 Owner: XGCM Country: CN operational
LEOCIRCULARRETROGRADESSO

現在のビュー

3D地球を読み込み中...

Yuxing-2 09について

説明を読み込み中...

次回通過

Passes for default location (London). Set your location on the main map for personalized predictions.

高度履歴

Loading altitude history...

軌道要素

1 66998U 25292F 26146.20499871 .00005306 00000-0 36190-3 0 9993
2 66998 97.6359 222.3172 0016545 81.0022 279.3077 15.06539159 25143
Epoch: May 26, 2026 • Age: 14 hours

現在のステータス

高度 554.6 km
速度 7.58 km/s
衛星直下点 -7.36°S, 119.94°W
打ち上げ日 Dec 10, 2025
運用期間 0.4 years
タイプ other

技術仕様

分類 Payload
質量 50.00 kg
乾燥質量 50.00 kg
総質量 50.00 kg
長さ 1.50 m
直径 1.00 m
スパン 1.50 m
形状 Box
製造者 XGCM
バスタイプ YX2
フェーズステータス In Orbit
所有者/国 XGCM/CN

Most Searched